QPF
0.01 0.01 0.03 0.03 0.03 0.03 0.04 0.04 0.02 0.02 0.02 0.02 0.03 0.05 0.08 0.08 0.08 0.03 0.06 0.07 0.06 0.05 0.08 0.09 0.06 0.05 0.06 0.07 0.06 0.05 0.05 0.05 0.06 0.07 0.06 0.06 0.07 0.06 0.06 0.07 0.07 0.07 0.06
0.01 0.01 0.02 0.02 0.03 0.05 0.07 0.04 0.02 0.03 0.04 0.04 0.04 0.08 0.08 0.08 0.13 0.06 0.06 0.05 0.07 0.08 0.09 0.09 0.09 0.08 0.08 0.07 0.07 0.06 0.06 0.06 0.07 0.08 0.07 0.07 0.07 0.07 0.06 0.07 0.07 0.08 0.08
0.02 0.02 0.02 0.03 0.05 0.05 0.04 0.03 0.03 0.03 0.04 0.06 0.08 0.09 0.07 0.05 0.06 0.05 0.05 0.05 0.07 0.13 0.13 0.13 0.13 0.12 0.13 0.12 0.11 0.09 0.08 0.08 0.08 0.09 0.08 0.08 0.08 0.08 0.07 0.07 0.08 0.08 0.08
0.02 0.02 0.03 0.04 0.05 0.04 0.03 0.03 0.04 0.05 0.05 0.08 0.11 0.08 0.04 0.03 0.02 0.02 0.03 0.05 0.06 0.10 0.13 0.14 0.15 0.14 0.13 0.12 0.14 0.17 0.15 0.15 0.14 0.13 0.11 0.10 0.10 0.10 0.09 0.08 0.08 0.08 0.07
0.02 0.03 0.03 0.03 0.04 0.04 0.04 0.04 0.06 0.08 0.09 0.06 0.06 0.05 0.02 0.02 0.02 0.03 0.03 0.04 0.05 0.08 0.12 0.15 0.15 0.14 0.14 0.13 0.15 0.20 0.22 0.22 0.21 0.18 0.16 0.12 0.12 0.12 0.10 0.09 0.08 0.07 0.06
0.03 0.04 0.04 0.03 0.04 0.04 0.05 0.04 0.04 0.04 0.05 0.04 0.04 0.04 0.02 0.02 0.03 0.03 0.02 0.02 0.03 0.05 0.08 0.13 0.15 0.14 0.13 0.13 0.13 0.17 0.23 0.26 0.23 0.20 0.18 0.16 0.15 0.14 0.12 0.10 0.09 0.07 0.07
0.02 0.02 0.03 0.03 0.03 0.04 0.05 0.04 0.03 0.03 0.04 0.04 0.03 0.02 0.02 0.01 0.03 0.03 0.02 0.03 0.03 0.03 0.04 0.06 0.08 0.09 0.09 0.10 0.10 0.10 0.13 0.17 0.19 0.17 0.18 0.19 0.18 0.16 0.14 0.12 0.11 0.09 0.08
0.00 0.01 0.01 0.01 0.02 0.03 0.04 0.04 0.03 0.03 0.02 0.03 0.03 0.02 0.02 0.01 0.01 0.02 0.04 0.04 0.03 0.02 0.03 0.04 0.04 0.04 0.04 0.04 0.06 0.07 0.09 0.10 0.12 0.11 0.10 0.11 0.14 0.15 0.15 0.13 0.10 0.09 0.08
0.01 0.01 0.01 0.01 0.02 0.03 0.03 0.03 0.02 0.02 0.02 0.04 0.04 0.04 0.03 0.01 0.01 0.02 0.03 0.04 0.04 0.06 0.07 0.07 0.05 0.03 0.02 0.02 0.03 0.04 0.05 0.06 0.08 0.08 0.07 0.07 0.07 0.08 0.09 0.09 0.08 0.07 0.07
0.01 0.01 0.01 0.01 0.01 0.01 0.02 0.02 0.02 0.02 0.03 0.03 0.04 0.04 0.04 0.04 0.03 0.01 0.01 0.02 0.03 0.04 0.04 0.05 0.04 0.03 0.02 0.03 0.05 0.06 0.06 0.09 0.07 0.06 0.06 0.06 0.05 0.06 0.06 0.05 0.06 0.06 0.06
0.00 0.01 0.01 0.02 0.01 0.02 0.02 0.02 0.03 0.03 0.04 0.04 0.03 0.03 0.04 0.04 0.03 0.02 0.01 0.01 0.01 0.01 0.02 0.03 0.04 0.03 0.04 0.05 0.05 0.07 0.11 0.14 0.07 0.06 0.07 0.07 0.07 0.06 0.06 0.06 0.07 0.09 0.08
0.00 0.01 0.03 0.04 0.02 0.03 0.03 0.03 0.04 0.03 0.02 0.03 0.03 0.04 0.04 0.04 0.03 0.03 0.02 0.01 0.01 0.01 0.01 0.01 0.03 0.04 0.06 0.07 0.10 0.12 0.14 0.08 0.06 0.06 0.08 0.09 0.09 0.09 0.09 0.09 0.10 0.10 0.11
0.01 0.02 0.03 0.03 0.03 0.04 0.04 0.04 0.04 0.02 0.02 0.02 0.02 0.02 0.02 0.02 0.03 0.03 0.03 0.03 0.03 0.02 0.02 0.03 0.04 0.06 0.09 0.11 0.10 0.10 0.08 0.06 0.05 0.06 0.07 0.08 0.08 0.09 0.09 0.08 0.10 0.10 0.11
0.02 0.02 0.03 0.02 0.02 0.03 0.03 0.04 0.03 0.02 0.03 0.03 0.03 0.02 0.02 0.02 0.02 0.03 0.04 0.04 0.03 0.03 0.03 0.04 0.06 0.09 0.11 0.14 0.15 0.13 0.09 0.08 0.09 0.08 0.06 0.05 0.05 0.05 0.06 0.06 0.05 0.06 0.08
0.02 0.03 0.04 0.04 0.03 0.02 0.02 0.02 0.02 0.02 0.02 0.01 0.01 0.02 0.02 0.02 0.03 0.03 0.03 0.03 0.03 0.05 0.07 0.08 0.06 0.05 0.08 0.11 0.11 0.10 0.08 0.09 0.09 0.07 0.05 0.04 0.03 0.04 0.04 0.05 0.04 0.04 0.05
0.02 0.03 0.03 0.03 0.03 0.02 0.02 0.02 0.02 0.02 0.02 0.01 0.01 0.01 0.01 0.02 0.02 0.03 0.03 0.03 0.03 0.03 0.04 0.04 0.04 0.04 0.05 0.06 0.08 0.06 0.05 0.06 0.06 0.05 0.04 0.03 0.02 0.02 0.02 0.03 0.02 0.02 0.03
0.00 0.01 0.01 0.01 0.01 0.01 0.01 0.01 0.01 0.01 0.01 0.01 0.02 0.01 0.01 0.01 0.01 0.02 0.03 0.03 0.05 0.05 0.04 0.03 0.04 0.05 0.04 0.03 0.05 0.04 0.03 0.05 0.07 0.06 0.05 0.03 0.03 0.02 0.02 0.02 0.02 0.01 0.01
0.00 0.00 0.00 0.00 0.00 0.00 0.00 0.00 0.01 0.01 0.01 0.01 0.01 0.01 0.01 0.02 0.01 0.02 0.02 0.03 0.04 0.03 0.02 0.02 0.05 0.05 0.04 0.03 0.02 0.03 0.03 0.03 0.04 0.06 0.06 0.05 0.04 0.03 0.02 0.02 0.02 0.01 0.01
0.00 0.01 0.00 0.00 0.00 0.00 0.00 0.00 0.01 0.01 0.01 0.01 0.01 0.01 0.01 0.02 0.02 0.02 0.02 0.02 0.03 0.02 0.03 0.03 0.04 0.05 0.04 0.04 0.03 0.03 0.03 0.05 0.04 0.04 0.05 0.05 0.04 0.03 0.02 0.01 0.01 0.01 0.01
0.01 0.01 0.02 0.02 0.01 0.01 0.01 0.01 0.01 0.01 0.01 0.01 0.01 0.01 0.02 0.01 0.02 0.02 0.02 0.02 0.02 0.03 0.04 0.05 0.05 0.04 0.03 0.04 0.04 0.04 0.03 0.04 0.05 0.04 0.05 0.04 0.04 0.03 0.03 0.02 0.02 0.01 0.01
0.02 0.03 0.03 0.03 0.02 0.02 0.01 0.01 0.01 0.01 0.01 0.01 0.01 0.01 0.02 0.02 0.02 0.02 0.02 0.03 0.03 0.04 0.04 0.06 0.06 0.05 0.04 0.04 0.05 0.05 0.04 0.03 0.03 0.04 0.04 0.04 0.04 0.03 0.03 0.02 0.02 0.01 0.01
0.03 0.03 0.04 0.04 0.03 0.01 0.01 0.01 0.01 0.02 0.01 0.01 0.01 0.01 0.02 0.02 0.02 0.03 0.03 0.03 0.03 0.04 0.04 0.03 0.03 0.04 0.04 0.05 0.05 0.05 0.05 0.03 0.02 0.02 0.02 0.03 0.04 0.04 0.03 0.02 0.02 0.02 0.02
0.02 0.03 0.03 0.03 0.02 0.02 0.02 0.02 0.01 0.01 0.01 0.01 0.01 0.01 0.01 0.02 0.03 0.04 0.04 0.03 0.02 0.03 0.03 0.03 0.02 0.02 0.05 0.04 0.03 0.03 0.04 0.04 0.02 0.01 0.01 0.01 0.03 0.05 0.04 0.03 0.03 0.02 0.02
0.04 0.04 0.03 0.02 0.02 0.02 0.02 0.02 0.02 0.02 0.02 0.01 0.01 0.01 0.01 0.01 0.03 0.04 0.05 0.03 0.01 0.02 0.02 0.02 0.01 0.01 0.03 0.04 0.02 0.02 0.02 0.03 0.02 0.01 0.01 0.01 0.01 0.03 0.04 0.05 0.05 0.04 0.03
0.06 0.05 0.03 0.03 0.02 0.02 0.02 0.02 0.03 0.03 0.02 0.02 0.02 0.01 0.01 0.01 0.02 0.04 0.04 0.03 0.02 0.02 0.02 0.02 0.02 0.02 0.03 0.04 0.05 0.04 0.03 0.02 0.02 0.01 0.00 0.00 0.00 0.01 0.02 0.04 0.06 0.06 0.06
0.07 0.06 0.05 0.05 0.04 0.03 0.03 0.03 0.03 0.03 0.02 0.02 0.01 0.01 0.01 0.01 0.02 0.02 0.02 0.03 0.03 0.02 0.02 0.02 0.02 0.02 0.03 0.03 0.05 0.05 0.03 0.02 0.02 0.01 0.00 0.01 0.01 0.02 0.02 0.02 0.03 0.05 0.05
MSLP
1010.95 1010.85 1010.68 1010.49 1010.33 1010.23 1010.23 1010.33 1010.52 1010.77 1011.05 1011.32 1011.56 1011.76 1011.92 1012.05 1012.16 1012.26 1012.35 1012.42 1012.48 1012.50 1012.49 1012.45 1012.38 1012.29 1012.20 1012.13 1012.06 1012.00 1011.93 1011.85 1011.75 1011.61 1011.45 1011.27 1011.09 1010.93 1010.80 1010.72 1010.69 1010.71 1010.78
1011.31 1011.29 1011.21 1011.10 1011.01 1010.96 1010.99 1011.10 1011.28 1011.52 1011.78 1012.03 1012.25 1012.42 1012.55 1012.63 1012.68 1012.71 1012.73 1012.75 1012.76 1012.77 1012.77 1012.75 1012.72 1012.68 1012.63 1012.56 1012.47 1012.36 1012.21 1012.04 1011.83 1011.61 1011.37 1011.14 1010.93 1010.75 1010.61 1010.51 1010.47 1010.47 1010.52
1011.54 1011.60 1011.61 1011.60 1011.59 1011.61 1011.68 1011.81 1012.00 1012.22 1012.46 1012.69 1012.87 1013.01 1013.10 1013.13 1013.13 1013.10 1013.07 1013.04 1013.03 1013.03 1013.04 1013.06 1013.08 1013.09 1013.07 1013.00 1012.89 1012.71 1012.49 1012.22 1011.92 1011.60 1011.29 1011.01 1010.76 1010.57 1010.42 1010.32 1010.27 1010.26 1010.30
1011.68 1011.80 1011.89 1011.97 1012.05 1012.14 1012.27 1012.43 1012.63 1012.84 1013.06 1013.25 1013.40 1013.51 1013.56 1013.56 1013.52 1013.46 1013.39 1013.34 1013.31 1013.32 1013.35 1013.41 1013.47 1013.51 1013.51 1013.44 1013.29 1013.06 1012.76 1012.40 1012.01 1011.62 1011.24 1010.91 1010.64 1010.42 1010.27 1010.17 1010.11 1010.10 1010.13
1011.80 1011.95 1012.09 1012.25 1012.41 1012.58 1012.76 1012.96 1013.16 1013.36 1013.55 1013.72 1013.85 1013.93 1013.97 1013.96 1013.91 1013.84 1013.77 1013.71 1013.69 1013.70 1013.75 1013.83 1013.91 1013.96 1013.96 1013.88 1013.70 1013.42 1013.05 1012.62 1012.15 1011.70 1011.27 1010.90 1010.60 1010.37 1010.21 1010.10 1010.04 1010.02 1010.04
1011.95 1012.09 1012.28 1012.49 1012.72 1012.95 1013.18 1013.40 1013.61 1013.80 1013.97 1014.12 1014.23 1014.32 1014.36 1014.36 1014.34 1014.29 1014.24 1014.20 1014.18 1014.21 1014.27 1014.35 1014.43 1014.47 1014.45 1014.33 1014.12 1013.79 1013.38 1012.90 1012.39 1011.88 1011.43 1011.03 1010.71 1010.47 1010.29 1010.17 1010.09 1010.05 1010.05
1012.16 1012.30 1012.50 1012.75 1013.02 1013.30 1013.56 1013.80 1014.01 1014.19 1014.34 1014.48 1014.60 1014.70 1014.77 1014.82 1014.84 1014.84 1014.83 1014.82 1014.83 1014.86 1014.91 1014.97 1015.01 1015.02 1014.96 1014.81 1014.56 1014.20 1013.76 1013.25 1012.73 1012.21 1011.74 1011.34 1011.01 1010.75 1010.54 1010.39 1010.27 1010.20 1010.16
1012.46 1012.58 1012.79 1013.06 1013.36 1013.67 1013.95 1014.19 1014.39 1014.56 1014.71 1014.84 1014.97 1015.10 1015.22 1015.33 1015.42 1015.48 1015.53 1015.56 1015.58 1015.60 1015.62 1015.64 1015.64 1015.59 1015.49 1015.29 1015.01 1014.63 1014.18 1013.69 1013.17 1012.68 1012.22 1011.82 1011.48 1011.20 1010.97 1010.77 1010.60 1010.47 1010.38
1012.83 1012.95 1013.17 1013.45 1013.76 1014.07 1014.35 1014.58 1014.77 1014.92 1015.06 1015.20 1015.35 1015.52 1015.70 1015.87 1016.03 1016.17 1016.27 1016.33 1016.36 1016.37 1016.35 1016.32 1016.25 1016.14 1015.97 1015.74 1015.43 1015.06 1014.63 1014.16 1013.69 1013.24 1012.82 1012.44 1012.10 1011.80 1011.53 1011.28 1011.05 1010.85 1010.69
1013.26 1013.38 1013.60 1013.88 1014.19 1014.50 1014.76 1014.98 1015.14 1015.27 1015.40 1015.54 1015.71 1015.91 1016.14 1016.38 1016.61 1016.80 1016.95 1017.04 1017.07 1017.06 1017.00 1016.90 1016.77 1016.59 1016.37 1016.10 1015.79 1015.43 1015.03 1014.62 1014.22 1013.83 1013.46 1013.11 1012.79 1012.49 1012.18 1011.88 1011.59 1011.31 1011.07
1013.70 1013.83 1014.06 1014.34 1014.64 1014.92 1015.15 1015.34 1015.48 1015.59 1015.69 1015.83 1016.01 1016.24 1016.50 1016.79 1017.07 1017.31 1017.49 1017.60 1017.63 1017.59 1017.49 1017.34 1017.14 1016.91 1016.65 1016.35 1016.04 1015.71 1015.36 1015.02 1014.68 1014.36 1014.06 1013.77 1013.47 1013.17 1012.86 1012.52 1012.17 1011.83 1011.51
1014.09 1014.26 1014.49 1014.76 1015.04 1015.29 1015.50 1015.65 1015.75 1015.83 1015.92 1016.04 1016.22 1016.46 1016.75 1017.06 1017.37 1017.63 1017.83 1017.95 1017.98 1017.92 1017.79 1017.59 1017.35 1017.08 1016.79 1016.48 1016.18 1015.87 1015.58 1015.30 1015.04 1014.79 1014.56 1014.33 1014.07 1013.80 1013.48 1013.13 1012.75 1012.37 1012.00
1014.40 1014.60 1014.84 1015.11 1015.37 1015.59 1015.76 1015.88 1015.95 1016.00 1016.07 1016.18 1016.35 1016.58 1016.87 1017.18 1017.50 1017.77 1017.98 1018.10 1018.12 1018.05 1017.90 1017.69 1017.42 1017.13 1016.83 1016.52 1016.22 1015.94 1015.69 1015.46 1015.27 1015.09 1014.92 1014.74 1014.54 1014.31 1014.02 1013.69 1013.31 1012.91 1012.52
1014.61 1014.83 1015.08 1015.34 1015.59 1015.79 1015.94 1016.03 1016.08 1016.11 1016.16 1016.25 1016.40 1016.62 1016.89 1017.20 1017.50 1017.76 1017.97 1018.09 1018.11 1018.04 1017.90 1017.68 1017.42 1017.12 1016.82 1016.51 1016.22 1015.96 1015.73 1015.54 1015.38 1015.25 1015.13 1015.01 1014.86 1014.68 1014.45 1014.16 1013.82 1013.44 1013.04
1014.68 1014.93 1015.19 1015.46 1015.69 1015.88 1016.02 1016.10 1016.14 1016.17 1016.22 1016.30 1016.43 1016.63 1016.88 1017.16 1017.44 1017.68 1017.88 1017.99 1018.03 1017.98 1017.85 1017.65 1017.41 1017.13 1016.83 1016.53 1016.24 1015.98 1015.75 1015.56 1015.42 1015.30 1015.22 1015.14 1015.04 1014.92 1014.75 1014.53 1014.24 1013.91 1013.55
1014.64 1014.91 1015.18 1015.44 1015.68 1015.88 1016.02 1016.11 1016.17 1016.22 1016.27 1016.35 1016.48 1016.66 1016.88 1017.13 1017.38 1017.60 1017.78 1017.90 1017.95 1017.92 1017.82 1017.66 1017.45 1017.20 1016.92 1016.63 1016.33 1016.06 1015.81 1015.60 1015.43 1015.31 1015.23 1015.17 1015.11 1015.04 1014.94 1014.78 1014.57 1014.31 1014.00
1014.50 1014.77 1015.06 1015.33 1015.58 1015.79 1015.96 1016.09 1016.18 1016.26 1016.34 1016.44 1016.57 1016.74 1016.94 1017.15 1017.37 1017.57 1017.74 1017.85 1017.92 1017.92 1017.86 1017.75 1017.58 1017.36 1017.11 1016.82 1016.52 1016.22 1015.93 1015.68 1015.47 1015.32 1015.21 1015.15 1015.10 1015.07 1015.02 1014.92 1014.79 1014.59 1014.34
1014.30 1014.57 1014.86 1015.14 1015.41 1015.65 1015.86 1016.03 1016.17 1016.29 1016.41 1016.54 1016.68 1016.84 1017.03 1017.21 1017.40 1017.58 1017.73 1017.85 1017.93 1017.96 1017.95 1017.88 1017.76 1017.59 1017.36 1017.09 1016.78 1016.45 1016.13 1015.82 1015.56 1015.36 1015.21 1015.12 1015.07 1015.04 1015.01 1014.96 1014.87 1014.73 1014.54
1014.08 1014.34 1014.62 1014.91 1015.20 1015.47 1015.71 1015.93 1016.12 1016.30 1016.46 1016.61 1016.77 1016.94 1017.10 1017.27 1017.43 1017.58 1017.72 1017.83 1017.93 1018.00 1018.03 1018.01 1017.94 1017.81 1017.62 1017.37 1017.06 1016.72 1016.37 1016.03 1015.71 1015.45 1015.25 1015.11 1015.03 1014.98 1014.94 1014.90 1014.84 1014.73 1014.57
1013.89 1014.13 1014.39 1014.68 1014.97 1015.26 1015.54 1015.79 1016.03 1016.24 1016.43 1016.62 1016.78 1016.95 1017.10 1017.25 1017.38 1017.51 1017.64 1017.75 1017.86 1017.95 1018.02 1018.05 1018.04 1017.96 1017.81 1017.60 1017.31 1016.98 1016.62 1016.25 1015.90 1015.60 1015.34 1015.15 1015.02 1014.92 1014.85 1014.79 1014.71 1014.60 1014.44
1013.76 1013.96 1014.20 1014.47 1014.75 1015.04 1015.33 1015.60 1015.86 1016.09 1016.30 1016.50 1016.67 1016.83 1016.97 1017.10 1017.21 1017.32 1017.43 1017.54 1017.66 1017.77 1017.87 1017.95 1017.98 1017.96 1017.87 1017.71 1017.47 1017.18 1016.83 1016.47 1016.11 1015.78 1015.49 1015.25 1015.06 1014.90 1014.78 1014.66 1014.53 1014.39 1014.21
1013.69 1013.86 1014.06 1014.30 1014.56 1014.83 1015.10 1015.36 1015.61 1015.84 1016.05 1016.24 1016.41 1016.55 1016.68 1016.79 1016.89 1016.98 1017.08 1017.19 1017.31 1017.43 1017.56 1017.67 1017.76 1017.79 1017.77 1017.67 1017.50 1017.26 1016.97 1016.64 1016.30 1015.98 1015.67 1015.40 1015.16 1014.95 1014.76 1014.57 1014.37 1014.16 1013.93
1013.67 1013.80 1013.97 1014.17 1014.39 1014.62 1014.86 1015.09 1015.30 1015.51 1015.70 1015.87 1016.02 1016.15 1016.26 1016.35 1016.44 1016.52 1016.61 1016.71 1016.83 1016.97 1017.11 1017.26 1017.38 1017.47 1017.51 1017.48 1017.39 1017.22 1017.01 1016.75 1016.46 1016.17 1015.88 1015.60 1015.33 1015.08 1014.82 1014.56 1014.29 1014.00 1013.70
1013.66 1013.77 1013.91 1014.07 1014.25 1014.43 1014.62 1014.80 1014.97 1015.13 1015.28 1015.42 1015.54 1015.66 1015.75 1015.84 1015.92 1016.00 1016.08 1016.18 1016.30 1016.44 1016.59 1016.75 1016.91 1017.03 1017.12 1017.16 1017.15 1017.07 1016.94 1016.76 1016.55 1016.32 1016.07 1015.82 1015.55 1015.28 1014.98 1014.67 1014.33 1013.96 1013.59
1013.59 1013.71 1013.83 1013.97 1014.11 1014.26 1014.39 1014.52 1014.64 1014.75 1014.86 1014.96 1015.06 1015.16 1015.25 1015.33 1015.41 1015.49 1015.58 1015.68 1015.79 1015.93 1016.08 1016.24 1016.41 1016.56 1016.68 1016.77 1016.82 1016.82 1016.77 1016.68 1016.55 1016.40 1016.22 1016.02 1015.78 1015.52 1015.22 1014.88 1014.49 1014.08 1013.64
1013.43 1013.57 1013.71 1013.84 1013.96 1014.07 1014.17 1014.25 1014.33 1014.40 1014.47 1014.55 1014.63 1014.72 1014.81 1014.90 1014.98 1015.07 1015.17 1015.27 1015.38 1015.50 1015.64 1015.79 1015.95 1016.10 1016.23 1016.35 1016.44 1016.49 1016.51 1016.50 1016.46 1016.39 1016.28 1016.15 1015.98 1015.76 1015.48 1015.15 1014.76 1014.32 1013.84
Thickness
5756 5754 5753 5751 5751 5750 5748 5747 5746 5745 5744 5743 5742 5741 5740 5739 5739 5738 5738 5739 5740 5742 5744 5746 5745 5744 5742 5740 5738 5737 5734 5732 5730 5728 5726 5725 5723 5722 5720 5718 5717 5715 5713
5755 5753 5751 5750 5750 5748 5747 5745 5744 5743 5742 5741 5739 5739 5738 5738 5737 5737 5736 5737 5738 5740 5742 5743 5743 5742 5740 5738 5737 5735 5733 5731 5729 5727 5725 5723 5722 5720 5718 5716 5715 5713 5711
5755 5752 5750 5749 5748 5747 5746 5744 5742 5741 5739 5738 5736 5736 5735 5735 5735 5735 5734 5734 5735 5737 5738 5740 5740 5739 5738 5737 5735 5733 5731 5730 5728 5726 5724 5722 5720 5718 5717 5715 5713 5711 5710
5753 5751 5749 5747 5746 5745 5744 5742 5739 5737 5735 5734 5733 5733 5733 5733 5733 5733 5732 5732 5733 5734 5735 5736 5736 5736 5735 5734 5733 5731 5730 5729 5727 5725 5723 5721 5719 5717 5715 5713 5711 5710 5708
5751 5749 5747 5745 5744 5743 5741 5739 5736 5734 5732 5731 5730 5730 5730 5730 5731 5731 5730 5730 5731 5731 5732 5732 5733 5732 5732 5731 5731 5729 5727 5726 5725 5723 5721 5719 5717 5715 5713 5712 5710 5708 5706
5749 5747 5745 5743 5742 5739 5737 5735 5733 5732 5730 5728 5729 5728 5727 5728 5728 5728 5728 5729 5728 5729 5729 5729 5729 5729 5728 5728 5727 5725 5724 5724 5723 5721 5719 5717 5715 5714 5712 5710 5709 5707 5705
5746 5744 5742 5741 5739 5736 5734 5732 5730 5728 5726 5726 5723 5721 5723 5725 5725 5725 5726 5726 5726 5726 5726 5726 5726 5726 5724 5724 5723 5722 5721 5721 5720 5718 5716 5715 5714 5712 5711 5709 5707 5706 5704
5744 5742 5740 5738 5736 5733 5731 5729 5727 5724 5723 5723 5719 5713 5710 5713 5718 5722 5722 5722 5722 5723 5722 5723 5723 5722 5721 5720 5720 5719 5718 5717 5716 5714 5713 5712 5711 5710 5709 5708 5706 5704 5702
5741 5739 5737 5735 5733 5730 5727 5726 5725 5722 5718 5719 5718 5713 5705 5702 5707 5714 5717 5718 5719 5719 5719 5720 5719 5719 5719 5718 5717 5716 5715 5714 5713 5712 5711 5710 5709 5708 5707 5706 5705 5703 5701
5738 5736 5735 5733 5730 5728 5725 5724 5722 5720 5717 5713 5714 5714 5712 5709 5703 5702 5708 5713 5715 5715 5716 5717 5717 5717 5716 5715 5714 5713 5711 5709 5710 5710 5709 5708 5706 5706 5705 5704 5703 5701 5700
5734 5733 5731 5729 5727 5725 5723 5721 5719 5717 5715 5712 5710 5709 5708 5707 5705 5700 5698 5704 5708 5711 5713 5713 5714 5714 5713 5712 5711 5709 5709 5706 5707 5707 5706 5705 5704 5703 5703 5703 5701 5700 5698
5729 5728 5727 5726 5724 5722 5719 5718 5716 5715 5713 5711 5709 5708 5705 5702 5700 5698 5696 5697 5699 5705 5709 5710 5710 5710 5709 5709 5708 5707 5706 5704 5704 5703 5702 5701 5701 5700 5699 5699 5699 5698 5696
5723 5723 5723 5721 5720 5718 5716 5715 5713 5711 5710 5708 5707 5706 5705 5703 5702 5699 5696 5694 5695 5699 5702 5705 5706 5706 5706 5705 5704 5704 5703 5701 5700 5700 5698 5698 5697 5697 5696 5695 5695 5694 5693
5720 5720 5718 5717 5716 5715 5713 5711 5709 5707 5706 5705 5704 5703 5702 5701 5700 5699 5696 5692 5689 5691 5694 5697 5701 5702 5702 5701 5701 5700 5699 5698 5697 5696 5696 5695 5694 5693 5692 5691 5690 5689 5688
5718 5716 5714 5713 5712 5710 5709 5707 5705 5703 5702 5701 5700 5700 5699 5698 5698 5697 5695 5693 5688 5684 5686 5691 5694 5697 5697 5697 5697 5696 5695 5695 5694 5693 5692 5691 5690 5689 5687 5686 5686 5685 5684
5714 5712 5710 5708 5707 5706 5705 5703 5701 5699 5697 5697 5696 5695 5694 5694 5693 5693 5692 5690 5688 5685 5682 5686 5689 5692 5692 5692 5692 5691 5691 5690 5690 5689 5688 5687 5686 5685 5683 5681 5681 5680 5679
5709 5707 5706 5704 5702 5701 5699 5697 5696 5694 5693 5692 5691 5690 5689 5689 5689 5688 5687 5686 5684 5683 5680 5682 5685 5687 5687 5686 5687 5686 5686 5685 5685 5685 5684 5683 5682 5681 5679 5678 5677 5676 5675
5705 5703 5701 5699 5697 5696 5694 5692 5691 5689 5688 5686 5685 5685 5684 5685 5683 5683 5682 5681 5680 5680 5678 5676 5678 5680 5681 5682 5682 5681 5681 5681 5681 5681 5680 5679 5678 5676 5675 5674 5673 5672 5671
5700 5698 5696 5694 5693 5691 5690 5688 5687 5685 5683 5682 5681 5680 5679 5679 5678 5677 5677 5676 5676 5676 5674 5673 5672 5673 5674 5675 5675 5675 5676 5675 5676 5676 5676 5675 5674 5672 5671 5669 5668 5667 5666
5695 5693 5691 5690 5688 5687 5685 5684 5682 5680 5678 5677 5677 5676 5675 5674 5673 5672 5671 5670 5670 5669 5668 5667 5666 5666 5666 5668 5668 5667 5666 5668 5669 5671 5670 5670 5669 5668 5666 5665 5664 5662 5661
5690 5688 5686 5684 5683 5682 5681 5679 5677 5675 5673 5672 5672 5671 5671 5671 5670 5669 5667 5665 5664 5662 5661 5660 5659 5659 5659 5659 5659 5660 5659 5660 5661 5663 5663 5663 5662 5662 5661 5659 5658 5657 5656
5684 5682 5680 5678 5677 5677 5676 5674 5672 5670 5668 5666 5666 5666 5666 5666 5665 5664 5663 5662 5660 5658 5655 5654 5652 5652 5653 5653 5654 5654 5652 5651 5651 5655 5655 5655 5656 5655 5655 5654 5653 5653 5652
5678 5676 5674 5673 5671 5671 5670 5669 5667 5664 5662 5661 5661 5660 5661 5661 5659 5658 5657 5656 5656 5655 5654 5652 5649 5648 5649 5649 5648 5647 5646 5645 5645 5648 5647 5647 5648 5647 5649 5649 5648 5647 5646
5671 5670 5668 5667 5666 5665 5665 5663 5662 5659 5657 5656 5656 5655 5654 5654 5654 5652 5650 5649 5648 5649 5649 5648 5648 5647 5646 5645 5644 5643 5641 5641 5641 5641 5641 5639 5640 5641 5643 5643 5642 5642 5641
5665 5664 5663 5662 5660 5659 5659 5658 5656 5654 5652 5651 5651 5651 5650 5649 5649 5647 5645 5642 5642 5643 5644 5644 5643 5642 5642 5641 5639 5637 5634 5632 5632 5633 5634 5633 5634 5634 5635 5636 5637 5636 5635
5659 5659 5657 5656 5654 5653 5653 5652 5651 5648 5646 5646 5646 5646 5646 5644 5643 5642 5640 5637 5636 5637 5637 5636 5635 5635 5635 5635 5634 5632 5631 5627 5625 5625 5629 5628 5627 5626 5626 5629 5629 5629 5628